Sign in

Goboko Update

Goboko is set to continue

The Goboko booking system is to continue under a new operator, a member of one of our longest-subscribed flying clubs

The new and previous operators of the site are working to ensure there will be no interruption to your booking service as the transition takes place. Of course, aircraft booking will continue to be free

Thank you for your continued commitment to Goboko

Info

Aviation weather

METAR KDAB 141653Z 18007KT 10SM FEW038 SCT055 SCT150 32/24 A3008 RMK AO2 SLP184 T03170239

TAF KDAB 141132Z 1412/1512 20003KT P6SM FEW040 BKN250 FM141400 20006KT P6SM SCT035 SCT250 FM141900 12008KT P6SM VCTS SCT035CB BKN250 TEMPO 1420/1423 3SM TSRA BKN030CB FM150000 20004KT P6SM VCTS SCT035CB BKN080 BKN250 FM150200 20003KT P6SM SCT040 SCT120 BKN250

Aviation weather from ADDS. Re-check weather before flight.

-